,,,PA_Meas_PMT16A,,PR_Meas_QMR101_102,,RH_Meas_QMH101,,SR_Meas_QMS101,,TA_Meas_QMH101,,GenWind,,GenWind,
date,time,status,PA,status,PR,status,RH,status,SR,status,TA,status,DirAvg,status,SpdAvg,
2011-06-29, 00:00:04,VALID,1003.84,VALID,0,INVALID,163.823,VALID,0,VALID,23.2152,VALID,356,VALID,0,
2011-06-29, 00:01:04,VALID,1003.83,VALID,0,INVALID,163.83,VALID,0,VALID,23.2364,VALID,356,VALID,0,
2011-06-29, 00:02:04,VALID,1003.85,VALID,0,INVALID,163.83,VALID,0,VALID,23.2559,VALID,356,VALID,0,
2011-06-29, 00:03:04,VALID,1003.81,VALID,0,INVALID,163.815,VALID,0,VALID,23.2948,VALID,356,VALID,0,
2011-06-29, 00:04:04,VALID,1003.82,VALID,0,INVALID,163.807,VALID,0,VALID,23.3143,VALID,356,VALID,0,
2011-06-29, 00:05:04,VALID,1003.8,VALID,0,INVALID,163.784,VALID,0,VALID,23.3143,VALID,356,VALID,0,
2011-06-29, 00:06:04,VALID,1003.79,VALID,0,INVALID,163.8,VALID,0,VALID,23.3337,VALID,356,VALID,0,
2011-06-29, 00:07:04,VALID,1003.8,VALID,0,INVALID,163.807,VALID,0,VALID,23.3337,VALID,356,VALID,0,
2011-06-29, 00:08:04,VALID,1003.77,VALID,0,INVALID,163.807,VALID,0,VALID,23.3532,VALID,356,VALID,0,
2011-06-29, 00:09:04,VALID,1003.78,VALID,0,INVALID,163.807,VALID,0,VALID,23.3337,VALID,356,VALID,0,
2011-06-29, 00:10:04,VALID,1003.77,VALID,0,INVALID,163.792,VALID,0,VALID,23.3143,VALID,356,VALID,0,
2011-06-29, 00:11:04,VALID,1003.76,VALID,0,INVALID,163.792,VALID,0,VALID,23.355,VALID,356,VALID,0,
2011-06-29, 00:12:04,VALID,1003.78,VALID,0,INVALID,163.792,VALID,0,VALID,23.3337,VALID,356,VALID,0,
2011-06-29, 00:13:04,VALID,1003.75,VALID,0,INVALID,163.8,VALID,0,VALID,23.3337,VALID,356,VALID,0,
2011-06-29, 00:14:04,VALID,1003.76,VALID,0,INVALID,163.807,VALID,0,VALID,23.3532,VALID,356,VALID,0,
2011-06-29, 00:15:04,VALID,1003.76,VALID,0,INVALID,163.8,VALID,0,VALID,23.332,VALID,356,VALID,0,
2011-06-29, 00:16:04,VALID,1003.74,VALID,0,INVALID,163.807,VALID,0,VALID,23.3727,VALID,92,VALID,0,
2011-06-29, 00:17:04,VALID,1003.72,VALID,0,INVALID,163.83,VALID,0,VALID,23.3727,VALID,92,VALID,0,
2011-06-29, 00:18:04,VALID,1003.72,VALID,0,INVALID,163.792,VALID,0,VALID,23.3709,VALID,91,VALID,0,
2011-06-29, 00:19:04,VALID,1003.71,VALID,0,INVALID,163.769,VALID,0,VALID,23.3921,VALID,91,VALID,0,
2011-06-29, 00:20:04,VALID,1003.71,VALID,0,INVALID,163.8,VALID,0,VALID,23.3709,VALID,91,VALID,0,
2011-06-29, 00:21:04,VALID,1003.66,VALID,0,INVALID,163.784,VALID,0,VALID,23.4116,VALID,91,VALID,0,
2011-06-29, 00:22:04,VALID,1003.66,VALID,0,INVALID,163.8,VALID,0,VALID,23.4311,VALID,91,VALID,0,
2011-06-29, 00:23:04,VALID,1003.64,VALID,0,INVALID,163.784,VALID,0,VALID,23.4311,VALID,91,VALID,0,
2011-06-29, 00:24:04,VALID,1003.63,VALID,0,INVALID,163.792,VALID,0,VALID,23.4098,VALID,91,VALID,0,
2011-06-29, 00:25:04,VALID,1003.67,VALID,0,INVALID,163.807,VALID,0,VALID,23.4718,VALID,91,VALID,0,
2011-06-29, 00:26:04,VALID,1003.6,VALID,0,INVALID,163.792,VALID,0,VALID,23.47,VALID,91,VALID,0,
2011-06-29, 00:27:04,VALID,1003.63,VALID,0,INVALID,163.815,VALID,0,VALID,23.5089,VALID,91,VALID,0,
2011-06-29, 00:28:04,VALID,1003.64,VALID,0,INVALID,163.8,VALID,0,VALID,23.5478,VALID,91,VALID,0,
2011-06-29, 00:29:04,VALID,1003.66,VALID,0,INVALID,163.769,VALID,0,VALID,23.5478,VALID,91,VALID,0,
2011-06-29, 00:30:04,VALID,1003.64,VALID,0,INVALID,163.8,VALID,0,VALID,23.5673,VALID,91,VALID,0,
2011-06-29, 00:31:04,VALID,1003.64,VALID,0,INVALID,163.792,VALID,0,VALID,23.5673,VALID,91,VALID,0,
2011-06-29, 00:32:04,VALID,1003.66,VALID,0,INVALID,163.8,VALID,0,VALID,23.546,VALID,91,VALID,0,
2011-06-29, 00:33:04,VALID,1003.64,VALID,0,INVALID,163.807,VALID,0,VALID,23.5655,VALID,91,VALID,0,
2011-06-29, 00:34:04,VALID,1003.63,VALID,0,INVALID,163.784,VALID,0,VALID,23.6062,VALID,91,VALID,0,
2011-06-29, 00:35:04,VALID,1003.67,VALID,0,INVALID,163.777,VALID,0,VALID,23.6275,VALID,91,VALID,0,
2011-06-29, 00:36:04,VALID,1003.65,VALID,0,INVALID,163.754,VALID,0,VALID,23.6257,VALID,91,VALID,0,
2011-06-29, 00:37:04,VALID,1003.63,VALID,0,INVALID,163.762,VALID,0,VALID,23.6257,VALID,91,VALID,0,
2011-06-29, 00:38:04,VALID,1003.67,VALID,0,INVALID,163.777,VALID,0,VALID,23.6257,VALID,91,VALID,0,
2011-06-29, 00:39:04,VALID,1003.63,VALID,0,INVALID,163.784,VALID,0,VALID,23.6452,VALID,91,VALID,0,
2011-06-29, 00:40:04,VALID,1003.62,VALID,0,INVALID,163.754,VALID,0,VALID,23.6452,VALID,91,VALID,0,
2011-06-29, 00:41:04,VALID,1003.62,VALID,0,INVALID,163.777,VALID,0,VALID,23.6452,VALID,91,VALID,0,
2011-06-29, 00:42:04,VALID,1003.62,VALID,0,INVALID,163.777,VALID,0,VALID,23.6239,VALID,91,VALID,0,
2011-06-29, 00:43:04,VALID,1003.6,VALID,0,INVALID,163.777,VALID,0,VALID,23.6646,VALID,91,VALID,0,
2011-06-29, 00:44:04,VALID,1003.58,VALID,0,INVALID,163.792,VALID,0,VALID,23.6646,VALID,91,VALID,0,
2011-06-29, 00:45:04,VALID,1003.56,VALID,0,INVALID,163.8,VALID,0,VALID,23.6434,VALID,91,VALID,0,
2011-06-29, 00:46:04,VALID,1003.54,VALID,0,INVALID,163.784,VALID,0,VALID,23.6646,VALID,91,VALID,0,
2011-06-29, 00:47:04,VALID,1003.56,VALID,0,INVALID,163.754,VALID,0,VALID,23.6628,VALID,91,VALID,0,
2011-06-29, 00:48:04,VALID,1003.53,VALID,0,INVALID,163.784,VALID,0,VALID,23.7053,VALID,91,VALID,0,
2011-06-29, 00:49:04,VALID,1003.52,VALID,0,INVALID,163.784,VALID,0,VALID,23.6841,VALID,91,VALID,0,
2011-06-29, 00:50:04,VALID,1003.5,VALID,0,INVALID,163.769,VALID,0,VALID,23.6628,VALID,91,VALID,0,
2011-06-29, 00:51:04,VALID,1003.5,VALID,0,INVALID,163.784,VALID,0,VALID,23.7035,VALID,91,VALID,0,
2011-06-29, 00:52:04,VALID,1003.46,VALID,0,INVALID,163.777,VALID,0,VALID,23.7035,VALID,91,VALID,0,
2011-06-29, 00:53:04,VALID,1003.48,VALID,0,INVALID,163.754,VALID,0,VALID,23.723,VALID,91,VALID,0,
2011-06-29, 00:54:04,VALID,1003.46,VALID,0,INVALID,163.762,VALID,0,VALID,23.723,VALID,91,VALID,0,
2011-06-29, 00:55:04,VALID,1003.44,VALID,0,INVALID,163.784,VALID,0,VALID,23.7425,VALID,91,VALID,0,
2011-06-29, 00:56:04,VALID,1003.43,VALID,0,INVALID,163.792,VALID,0,VALID,23.7814,VALID,92,VALID,0,
2011-06-29, 00:57:04,VALID,1003.43,VALID,0,INVALID,163.754,VALID,0,VALID,23.8009,VALID,71,VALID,0,
2011-06-29, 00:58:04,VALID,1003.45,VALID,0,INVALID,163.754,VALID,0,VALID,23.8416,VALID,50,VALID,0,
2011-06-29, 00:59:04,VALID,1003.41,VALID,0,INVALID,163.777,VALID,0,VALID,23.8203,VALID,76,VALID,0,
2011-06-29, 01:00:04,VALID,1003.42,VALID,0,INVALID,163.762,VALID,0,VALID,23.8203,VALID,85,VALID,0,
2011-06-29, 01:01:04,VALID,1003.39,VALID,0,INVALID,163.777,VALID,0,VALID,23.8203,VALID,91,VALID,0,
2011-06-29, 01:02:04,VALID,1003.43,VALID,0,INVALID,163.784,VALID,0,VALID,23.8203,VALID,96,VALID,0,
2011-06-29, 01:03:04,VALID,1003.4,VALID,0,INVALID,163.754,VALID,0,VALID,23.8185,VALID,97,VALID,0,
2011-06-29, 01:04:04,VALID,1003.42,VALID,0,INVALID,163.762,VALID,0,VALID,23.838,VALID,97,VALID,0,
2011-06-29, 01:05:04,VALID,1003.37,VALID,0,INVALID,163.739,VALID,0,VALID,23.8593,VALID,101,VALID,0,
2011-06-29, 01:06:04,VALID,1003.37,VALID,0,INVALID,163.754,VALID,0,VALID,23.8787,VALID,101,VALID,0,
2011-06-29, 01:07:04,VALID,1003.35,VALID,0,INVALID,163.792,VALID,0,VALID,23.8787,VALID,101,VALID,0,
2011-06-29, 01:08:04,VALID,1003.35,VALID,0,INVALID,163.746,VALID,0,VALID,23.8982,VALID,101,VALID,0,
2011-06-29, 01:09:04,VALID,1003.32,VALID,0,INVALID,163.762,VALID,0,VALID,23.8982,VALID,99,VALID,0,
2011-06-29, 01:10:04,VALID,1003.35,VALID,0,INVALID,163.746,VALID,0,VALID,23.8769,VALID,99,VALID,0,
2011-06-29, 01:11:04,VALID,1003.33,VALID,0,INVALID,163.777,VALID,0,VALID,23.9177,VALID,98,VALID,0,
2011-06-29, 01:12:04,VALID,1003.33,VALID,0,INVALID,163.731,VALID,0,VALID,23.9177,VALID,29,VALID,0,
2011-06-29, 01:13:04,VALID,1003.33,VALID,0,INVALID,163.754,VALID,0,VALID,23.9353,VALID,27,VALID,0,
2011-06-29, 01:14:04,VALID,1003.31,VALID,0,INVALID,163.754,VALID,0,VALID,23.9761,VALID,27,VALID,0,
2011-06-29, 01:15:04,VALID,1003.33,VALID,0,INVALID,163.777,VALID,0,VALID,23.9955,VALID,28,VALID,0,
2011-06-29, 01:16:04,VALID,1003.32,VALID,0,INVALID,163.754,VALID,0,VALID,24.0539,VALID,28,VALID,0,
2011-06-29, 01:17:04,VALID,1003.3,VALID,0,INVALID,163.769,VALID,0,VALID,24.0734,VALID,74,VALID,0,
2011-06-29, 01:18:04,VALID,1003.32,VALID,0,INVALID,163.769,VALID,0,VALID,24.0734,VALID,94,VALID,0,
2011-06-29, 01:19:04,VALID,1003.27,VALID,0,INVALID,163.746,VALID,0,VALID,24.091,VALID,88,VALID,0,
2011-06-29, 01:20:04,VALID,1003.26,VALID,0,INVALID,163.746,VALID,0,VALID,24.1123,VALID,93,VALID,0,
2011-06-29, 01:21:04,VALID,1003.26,VALID,0,INVALID,163.746,VALID,0,VALID,24.1123,VALID,91,VALID,0,
2011-06-29, 01:22:04,VALID,1003.26,VALID,0,INVALID,163.708,VALID,0,VALID,24.1318,VALID,91,VALID,0,
2011-06-29, 01:23:04,VALID,1003.27,VALID,0,INVALID,163.731,VALID,0,VALID,24.091,VALID,80,VALID,0,
2011-06-29, 01:24:04,VALID,1003.29,VALID,0,INVALID,163.762,VALID,0,VALID,24.0929,VALID,133,VALID,0,
2011-06-29, 01:25:04,VALID,1003.28,VALID,0,INVALID,163.739,VALID,0,VALID,24.0929,VALID,71,VALID,0,
2011-06-29, 01:26:04,VALID,1003.26,VALID,0,INVALID,163.777,VALID,0,VALID,24.1336,VALID,79,VALID,0,
2011-06-29, 01:27:04,VALID,1003.24,VALID,0,INVALID,163.739,VALID,0,VALID,24.1123,VALID,32,VALID,0,
2011-06-29, 01:28:04,VALID,1003.23,VALID,0,INVALID,163.731,VALID,0,VALID,24.1318,VALID,32,VALID,0,
2011-06-29, 01:29:04,VALID,1003.2,VALID,0,INVALID,163.762,VALID,0,VALID,24.1123,VALID,73,VALID,0,
2011-06-29, 01:30:04,VALID,1003.22,VALID,0,INVALID,163.723,VALID,0.100563,VALID,24.1087,VALID,89,VALID,0,
2011-06-29, 01:31:04,VALID,1003.2,VALID,0,INVALID,163.746,VALID,0.100563,VALID,24.13,VALID,60,VALID,0,
2011-06-29, 01:32:04,VALID,1003.19,VALID,0,INVALID,163.739,VALID,0,VALID,24.13,VALID,76,VALID,0,
2011-06-29, 01:33:04,VALID,1003.17,VALID,0,INVALID,163.731,VALID,0.100563,VALID,24.1105,VALID,85,VALID,0,
2011-06-29, 01:34:04,VALID,1003.17,VALID,0,INVALID,163.746,VALID,0.100563,VALID,24.1105,VALID,91,VALID,0,
2011-06-29, 01:35:04,VALID,1003.13,VALID,0,INVALID,163.754,VALID,0.100563,VALID,24.0892,VALID,100,VALID,0,
2011-06-29, 01:36:04,VALID,1003.13,VALID,0,INVALID,163.762,VALID,0.100563,VALID,24.1105,VALID,79,VALID,0,
2011-06-29, 01:37:04,VALID,1003.13,VALID,0,INVALID,163.746,VALID,0,VALID,24.091,VALID,61,VALID,0,
2011-06-29, 01:38:04,VALID,1003.11,VALID,0,INVALID,163.762,VALID,0.100563,VALID,24.091,VALID,59,VALID,0,
2011-06-29, 01:39:04,VALID,1003.1,VALID,0,INVALID,163.723,VALID,0.100563,VALID,24.0521,VALID,60,VALID,0,
2011-06-29, 01:40:04,VALID,1003.07,VALID,0,INVALID,163.731,VALID,0.100563,VALID,24.0503,VALID,69,VALID,0,
2011-06-29, 01:41:04,VALID,1003.08,VALID,0,INVALID,163.731,VALID,0,VALID,24.0521,VALID,69,VALID,0,
2011-06-29, 01:42:04,VALID,1003.04,VALID,0,INVALID,163.769,VALID,0.100563,VALID,24.0114,VALID,74,VALID,0,
2011-06-29, 01:43:04,VALID,1003.02,VALID,0,INVALID,163.762,VALID,0.100563,VALID,24.0326,VALID,77,VALID,0,
2011-06-29, 01:44:04,VALID,1003.01,VALID,0,INVALID,163.762,VALID,0.100563,VALID,24.0114,VALID,90,VALID,0,
2011-06-29, 01:45:04,VALID,1002.99,VALID,0,INVALID,163.769,VALID,0,VALID,23.9937,VALID,63,VALID,0,
2011-06-29, 01:46:04,VALID,1002.97,VALID,0,INVALID,163.746,VALID,0,VALID,24.0132,VALID,64,VALID,0,
2011-06-29, 01:47:04,VALID,1002.98,VALID,0,INVALID,163.762,VALID,0,VALID,24.0132,VALID,69,VALID,0,
2011-06-29, 01:48:04,VALID,1002.95,VALID,0,INVALID,163.777,VALID,0,VALID,24.0326,VALID,79,VALID,0,
2011-06-29, 01:49:04,VALID,1002.95,VALID,0,INVALID,163.754,VALID,0,VALID,24.0521,VALID,82,VALID,0,
2011-06-29, 01:50:04,VALID,1002.94,VALID,0,INVALID,163.792,VALID,0,VALID,24.0716,VALID,98,VALID,0,
2011-06-29, 01:51:04,VALID,1002.91,VALID,0,INVALID,163.739,VALID,0,VALID,24.091,VALID,88,VALID,0,
2011-06-29, 01:52:04,VALID,1002.9,VALID,0,INVALID,163.769,VALID,0,VALID,24.1105,VALID,95,VALID,0,
2011-06-29, 01:53:04,VALID,1002.92,VALID,0,INVALID,163.762,VALID,0,VALID,24.1105,VALID,101,VALID,0,
2011-06-29, 01:54:04,VALID,1002.88,VALID,0,INVALID,163.777,VALID,0,VALID,24.1123,VALID,92,VALID,0,
2011-06-29, 01:55:04,VALID,1002.9,VALID,0,INVALID,163.762,VALID,0,VALID,24.1123,VALID,59,VALID,0,
2011-06-29, 01:56:04,VALID,1002.88,VALID,0,INVALID,163.777,VALID,0,VALID,24.1105,VALID,68,VALID,0,
2011-06-29, 01:57:04,VALID,1002.89,VALID,0,INVALID,163.716,VALID,0,VALID,24.1318,VALID,64,VALID,0,
2011-06-29, 01:58:04,VALID,1002.89,VALID,0,INVALID,163.746,VALID,0,VALID,24.1318,VALID,90,VALID,0,
2011-06-29, 01:59:04,VALID,1002.87,VALID,0,INVALID,163.746,VALID,0,VALID,24.1318,VALID,117,VALID,0,
2011-06-29, 02:00:04,VALID,1002.86,VALID,0,INVALID,163.746,VALID,0,VALID,24.1513,VALID,76,VALID,0,
2011-06-29, 02:01:04,VALID,1002.86,VALID,0,INVALID,163.754,VALID,0,VALID,24.1513,VALID,88,VALID,0,
2011-06-29, 02:02:04,VALID,1002.84,VALID,0,INVALID,163.754,VALID,0,VALID,24.1707,VALID,71,VALID,0,
2011-06-29, 02:03:04,VALID,1002.87,VALID,0,INVALID,163.746,VALID,0,VALID,24.1513,VALID,95,VALID,0,
2011-06-29, 02:04:04,VALID,1002.81,VALID,0,INVALID,163.762,VALID,0,VALID,24.1513,VALID,90,VALID,0,
2011-06-29, 02:05:04,VALID,1002.83,VALID,0,INVALID,163.769,VALID,0,VALID,24.1513,VALID,87,VALID,0,
2011-06-29, 02:06:04,VALID,1002.81,VALID,0.5,INVALID,163.754,VALID,0,VALID,24.1707,VALID,81,VALID,0,
2011-06-29, 02:07:04,VALID,1002.82,VALID,0,INVALID,163.754,VALID,0,VALID,24.1513,VALID,86,VALID,0,
2011-06-29, 02:08:04,VALID,1002.79,VALID,0,INVALID,163.739,VALID,0,VALID,24.1513,VALID,83,VALID,0,
2011-06-29, 02:09:04,VALID,1002.8,VALID,0,INVALID,163.746,VALID,0,VALID,24.13,VALID,65,VALID,0,
2011-06-29, 02:10:04,VALID,1002.79,VALID,0,INVALID,163.754,VALID,0,VALID,24.1105,VALID,86,VALID,0,
2011-06-29, 02:11:04,VALID,1002.76,VALID,0,INVALID,163.731,VALID,0,VALID,24.1318,VALID,90,VALID,0,
2011-06-29, 02:12:04,VALID,1002.75,VALID,0,INVALID,163.769,VALID,0,VALID,24.1105,VALID,94,VALID,0,
2011-06-29, 02:13:04,VALID,1002.74,VALID,0,INVALID,163.746,VALID,0,VALID,24.1105,VALID,94,VALID,0,
2011-06-29, 02:14:04,VALID,1002.73,VALID,0,INVALID,163.754,VALID,0,VALID,24.13,VALID,87,VALID,0,
2011-06-29, 02:15:04,VALID,1002.71,VALID,0,INVALID,163.754,VALID,0,VALID,24.1105,VALID,86,VALID,0,
2011-06-29, 02:16:04,VALID,1002.7,VALID,0,INVALID,163.739,VALID,0,VALID,24.13,VALID,103,VALID,0,
2011-06-29, 02:17:04,VALID,1002.65,VALID,0,INVALID,163.731,VALID,0,VALID,24.1513,VALID,94,VALID,0,
2011-06-29, 02:18:04,VALID,1002.64,VALID,0,INVALID,163.746,VALID,0,VALID,24.1689,VALID,101,VALID,0,
2011-06-29, 02:19:04,VALID,1002.65,VALID,0,INVALID,163.739,VALID,0,VALID,24.1494,VALID,90,VALID,0,
2011-06-29, 02:20:04,VALID,1002.65,VALID,0,INVALID,163.739,VALID,0,VALID,24.1902,VALID,78,VALID,0,
2011-06-29, 02:21:04,VALID,1002.63,VALID,0,INVALID,163.731,VALID,0,VALID,24.1476,VALID,72,VALID,0,
2011-06-29, 02:22:04,VALID,1002.63,VALID,0,INVALID,163.746,VALID,0,VALID,24.1707,VALID,326,VALID,0,
2011-06-29, 02:23:04,VALID,1002.63,VALID,0,INVALID,163.746,VALID,0,VALID,24.1884,VALID,81,VALID,0,
2011-06-29, 02:24:04,VALID,1002.63,VALID,0,INVALID,163.739,VALID,0,VALID,24.1884,VALID,82,VALID,0,
2011-06-29, 02:25:04,VALID,1002.61,VALID,0,INVALID,163.754,VALID,0,VALID,24.1902,VALID,37,VALID,0,
2011-06-29, 02:26:04,VALID,1002.59,VALID,0,INVALID,163.762,VALID,0,VALID,24.2097,VALID,55,VALID,0,
2011-06-29, 02:27:04,VALID,1002.58,VALID,0,INVALID,163.731,VALID,0,VALID,24.2681,VALID,59,VALID,0,
2011-06-29, 02:28:04,VALID,1002.6,VALID,0,INVALID,163.746,VALID,0,VALID,24.2681,VALID,48,VALID,0,
2011-06-29, 02:29:04,VALID,1002.57,VALID,0,INVALID,163.754,VALID,0,VALID,24.2662,VALID,21,VALID,0,
2011-06-29, 02:30:04,VALID,1002.58,VALID,0,INVALID,163.723,VALID,0,VALID,24.3088,VALID,357,VALID,0,
2011-06-29, 02:31:04,VALID,1002.6,VALID,0,INVALID,163.716,VALID,0,VALID,24.4062,VALID,350,VALID,0,
2011-06-29, 02:32:04,VALID,1002.59,VALID,0,INVALID,163.723,VALID,0,VALID,24.4257,VALID,349,VALID,0,
2011-06-29, 02:33:04,VALID,1002.58,VALID,0,INVALID,163.754,VALID,0,VALID,24.3441,VALID,336,VALID,0,
2011-06-29, 02:34:04,VALID,1002.57,VALID,0,INVALID,163.754,VALID,0,VALID,24.307,VALID,320,VALID,0,
2011-06-29, 02:35:04,VALID,1002.58,VALID,0,INVALID,163.754,VALID,0,VALID,24.2681,VALID,288,VALID,0,
2011-06-29, 02:36:04,VALID,1002.55,VALID,0,INVALID,163.746,VALID,0,VALID,24.2291,VALID,288,VALID,0,
2011-06-29, 02:37:04,VALID,1002.55,VALID,0,INVALID,163.754,VALID,0,VALID,24.1902,VALID,11,VALID,0,
2011-06-29, 02:38:04,VALID,1002.58,VALID,0,INVALID,163.754,VALID,0,VALID,24.1123,VALID,51,VALID,0,
2011-06-29, 02:39:04,VALID,1002.57,VALID,0,INVALID,163.754,VALID,0,VALID,24.0734,VALID,90,VALID,0,
2011-06-29, 02:40:04,VALID,1002.55,VALID,0,INVALID,163.723,VALID,0,VALID,24.0132,VALID,93,VALID,0,
2011-06-29, 02:41:04,VALID,1002.52,VALID,0,INVALID,163.769,VALID,0,VALID,23.9742,VALID,117,VALID,0,
2011-06-29, 02:42:04,VALID,1002.54,VALID,0,INVALID,163.739,VALID,0,VALID,24.0345,VALID,92,VALID,0,
2011-06-29, 02:43:04,VALID,1002.51,VALID,0,INVALID,163.701,VALID,0,VALID,24.0929,VALID,104,VALID,0,
2011-06-29, 02:44:04,VALID,1002.49,VALID,0,INVALID,163.746,VALID,0,VALID,24.2115,VALID,98,VALID,0,
2011-06-29, 02:45:04,VALID,1002.47,VALID,0,INVALID,163.731,VALID,0,VALID,24.2097,VALID,66,VALID,0,
2011-06-29, 02:46:04,VALID,1002.44,VALID,0,INVALID,163.716,VALID,0,VALID,24.2875,VALID,17,VALID,0,
2011-06-29, 02:47:04,VALID,1002.42,VALID,0,INVALID,163.754,VALID,0,VALID,24.2857,VALID,41,VALID,0,
2011-06-29, 02:48:04,VALID,1002.42,VALID,0,INVALID,163.723,VALID,0,VALID,24.3459,VALID,36,VALID,0,
2011-06-29, 02:49:04,VALID,1002.41,VALID,0,INVALID,163.739,VALID,0,VALID,24.3265,VALID,34,VALID,0,
2011-06-29, 02:50:04,VALID,1002.38,VALID,0,INVALID,163.739,VALID,0,VALID,24.4043,VALID,47,VALID,0,
2011-06-29, 02:51:04,VALID,1002.37,VALID,0,INVALID,163.708,VALID,0,VALID,24.4646,VALID,34,VALID,0,
2011-06-29, 02:52:04,VALID,1002.35,VALID,0,INVALID,163.723,VALID,0,VALID,24.5212,VALID,34,VALID,0,
2011-06-29, 02:53:04,VALID,1002.35,VALID,0,INVALID,163.716,VALID,0,VALID,24.5406,VALID,22,VALID,0,
2011-06-29, 02:54:04,VALID,1002.33,VALID,0,INVALID,163.708,VALID,0,VALID,24.4998,VALID,22,VALID,0,
2011-06-29, 02:55:04,VALID,1002.31,VALID,0,INVALID,163.716,VALID,0,VALID,24.4628,VALID,48,VALID,0,
2011-06-29, 02:56:04,VALID,1002.33,VALID,0,INVALID,163.731,VALID,0,VALID,24.4628,VALID,36,VALID,0,
2011-06-29, 02:57:04,VALID,1002.29,VALID,0,INVALID,163.731,VALID,0,VALID,24.4433,VALID,32,VALID,0,
2011-06-29, 02:58:04,VALID,1002.27,VALID,0,INVALID,163.739,VALID,0,VALID,24.4628,VALID,51,VALID,0,
2011-06-29, 02:59:04,VALID,1002.24,VALID,0,INVALID,163.708,VALID,0,VALID,24.4433,VALID,40,VALID,0,
2011-06-29, 03:00:04,VALID,1002.21,VALID,0,INVALID,163.731,VALID,0,VALID,24.4433,VALID,64,VALID,0,
2011-06-29, 03:01:04,VALID,1002.2,VALID,0,INVALID,163.723,VALID,0,VALID,24.4414,VALID,29,VALID,0,
2011-06-29, 03:02:04,VALID,1002.19,VALID,0,INVALID,163.701,VALID,0,VALID,24.4238,VALID,85,VALID,0,
2011-06-29, 03:03:04,VALID,1002.17,VALID,0,INVALID,163.739,VALID,0,VALID,24.4451,VALID,23,VALID,0,
2011-06-29, 03:04:04,VALID,1002.18,VALID,0,INVALID,163.708,VALID,0,VALID,24.4628,VALID,48,VALID,0,
2011-06-29, 03:05:04,VALID,1002.13,VALID,0,INVALID,163.708,VALID,0,VALID,24.5212,VALID,61,VALID,0,
2011-06-29, 03:06:04,VALID,1002.13,VALID,0,INVALID,163.708,VALID,0,VALID,24.5796,VALID,36,VALID,0,
2011-06-29, 03:07:04,VALID,1002.13,VALID,0,INVALID,163.678,VALID,0,VALID,24.5796,VALID,49,VALID,0,
2011-06-29, 03:08:04,VALID,1002.15,VALID,0,INVALID,163.693,VALID,0,VALID,24.638,VALID,34,VALID,0,
2011-06-29, 03:09:04,VALID,1002.17,VALID,0,INVALID,163.693,VALID,0,VALID,24.638,VALID,32,VALID,0,
2011-06-29, 03:10:04,VALID,1002.18,VALID,0,INVALID,163.708,VALID,0,VALID,24.638,VALID,32,VALID,0,
2011-06-29, 03:11:04,VALID,1002.17,VALID,0,INVALID,163.678,VALID,0,VALID,24.638,VALID,28,VALID,0,
2011-06-29, 03:12:04,VALID,1002.18,VALID,0,INVALID,140.028,VALID,0,VALID,24.7159,VALID,28,VALID,0,
2011-06-29, 03:13:04,VALID,1002.19,VALID,0,INVALID,163.647,VALID,0,VALID,24.7353,VALID,30,VALID,0,
2011-06-29, 03:14:04,VALID,1002.17,VALID,0,INVALID,163.228,VALID,0,VALID,24.7159,VALID,43,VALID,0,
2011-06-29, 03:15:04,VALID,1002.15,VALID,0,INVALID,163.662,VALID,0,VALID,24.675,VALID,91,VALID,0,
2011-06-29, 03:16:04,VALID,1002.16,VALID,0,INVALID,163.693,VALID,0,VALID,24.6769,VALID,32,VALID,0,
2011-06-29, 03:17:04,VALID,1002.16,VALID,0,INVALID,163.693,VALID,0,VALID,24.6166,VALID,37,VALID,0,
2011-06-29, 03:18:04,VALID,1002.16,VALID,0,INVALID,163.731,VALID,0,VALID,24.5582,VALID,35,VALID,0,
2011-06-29, 03:19:04,VALID,1002.15,VALID,0,INVALID,163.701,VALID,0,VALID,24.5777,VALID,25,VALID,0,
2011-06-29, 03:20:04,VALID,1002.17,VALID,0,INVALID,163.723,VALID,0,VALID,24.5777,VALID,48,VALID,0,
2011-06-29, 03:21:04,VALID,1002.17,VALID,0,INVALID,163.693,VALID,0,VALID,24.5972,VALID,37,VALID,0,
2011-06-29, 03:22:04,VALID,1002.18,VALID,0,INVALID,163.723,VALID,0,VALID,24.5972,VALID,32,VALID,0,
2011-06-29, 03:23:04,VALID,1002.17,VALID,0,INVALID,163.708,VALID,0,VALID,24.6185,VALID,15,VALID,0,
2011-06-29, 03:24:04,VALID,1002.19,VALID,0,INVALID,163.708,VALID,0,VALID,24.5777,VALID,68,VALID,0,
2011-06-29, 03:25:04,VALID,1002.18,VALID,0,INVALID,163.739,VALID,0,VALID,24.5777,VALID,36,VALID,0,
2011-06-29, 03:26:04,VALID,1002.21,VALID,0,INVALID,163.716,VALID,0,VALID,24.599,VALID,47,VALID,0,
2011-06-29, 03:27:04,VALID,1002.22,VALID,0,INVALID,163.685,VALID,0,VALID,24.5953,VALID,37,VALID,0,
2011-06-29, 03:28:04,VALID,1002.19,VALID,0,INVALID,163.731,VALID,0.100563,VALID,24.6361,VALID,27,VALID,0,
2011-06-29, 03:29:04,VALID,1002.23,VALID,0,INVALID,163.701,VALID,0,VALID,24.6556,VALID,12,VALID,0,
2011-06-29, 03:30:04,VALID,1002.22,VALID,0,INVALID,163.723,VALID,0,VALID,24.6945,VALID,44,VALID,0,
2011-06-29, 03:31:04,VALID,1002.24,VALID,0,INVALID,163.685,VALID,0,VALID,24.7335,VALID,23,VALID,0,
2011-06-29, 03:32:04,VALID,1002.27,VALID,0,INVALID,163.708,VALID,0.100563,VALID,24.7919,VALID,36,VALID,0,
2011-06-29, 03:33:04,VALID,1002.26,VALID,0,INVALID,163.693,VALID,0,VALID,24.8308,VALID,22,VALID,0,
2011-06-29, 03:34:04,VALID,1002.27,VALID,0,INVALID,163.67,VALID,0,VALID,24.9495,VALID,26,VALID,0,
2011-06-29, 03:35:04,VALID,1002.29,VALID,0,INVALID,163.685,VALID,0,VALID,24.93,VALID,19,VALID,0,
2011-06-29, 03:36:04,VALID,1002.3,VALID,0,INVALID,163.693,VALID,0,VALID,24.9885,VALID,26,VALID,0,
2011-06-29, 03:37:04,VALID,1002.31,VALID,0,INVALID,163.693,VALID,0,VALID,24.9671,VALID,46,VALID,0,
2011-06-29, 03:38:04,VALID,1002.34,VALID,0,INVALID,163.708,VALID,0,VALID,24.9282,VALID,24,VALID,0,
2011-06-29, 03:39:04,VALID,1002.35,VALID,0,INVALID,163.685,VALID,0,VALID,25.0079,VALID,21,VALID,0,
2011-06-29, 03:40:04,VALID,1002.35,VALID,0,INVALID,163.693,VALID,0,VALID,24.9866,VALID,28,VALID,0,
2011-06-29, 03:41:04,VALID,1002.37,VALID,0,INVALID,163.678,VALID,0,VALID,25.006,VALID,19,VALID,0,
2011-06-29, 03:42:04,VALID,1002.39,VALID,0,INVALID,163.639,VALID,0,VALID,25.0255,VALID,18,VALID,0,
2011-06-29, 03:43:04,VALID,1002.39,VALID,0,INVALID,163.67,VALID,0,VALID,25.0682,VALID,24,VALID,0,
2011-06-29, 03:44:04,VALID,1002.42,VALID,0,INVALID,163.655,VALID,0,VALID,25.0839,VALID,21,VALID,0,
2011-06-29, 03:45:04,VALID,1002.45,VALID,0,INVALID,163.655,VALID,0,VALID,25.0839,VALID,17,VALID,0,
2011-06-29, 03:46:04,VALID,1002.45,VALID,0,INVALID,163.701,VALID,0,VALID,25.1442,VALID,25,VALID,0,
2011-06-29, 03:47:04,VALID,1002.45,VALID,0,INVALID,163.647,VALID,0,VALID,25.1813,VALID,31,VALID,0,
2011-06-29, 03:48:04,VALID,1002.45,VALID,0,INVALID,163.311,VALID,0,VALID,25.2027,VALID,20,VALID,0,
2011-06-29, 03:49:04,VALID,1002.48,VALID,0,INVALID,163.639,VALID,0,VALID,25.1813,VALID,23,VALID,0,
2011-06-29, 03:50:04,VALID,1002.46,VALID,0,INVALID,161.244,VALID,0,VALID,25.2027,VALID,21,VALID,0,
2011-06-29, 03:51:04,VALID,1002.48,VALID,0,INVALID,153.943,VALID,0,VALID,25.2397,VALID,26,VALID,0,
2011-06-29, 03:52:04,VALID,1002.49,VALID,0,INVALID,163.601,VALID,0,VALID,25.2027,VALID,34,VALID,0,
2011-06-29, 03:53:04,VALID,1002.5,VALID,0,INVALID,163.647,VALID,0,VALID,25.1423,VALID,16,VALID,0,
2011-06-29, 03:54:04,VALID,1002.54,VALID,0,INVALID,163.655,VALID,0,VALID,25.1034,VALID,30,VALID,0,
2011-06-29, 03:55:04,VALID,1002.52,VALID,0,INVALID,163.632,VALID,0,VALID,25.1034,VALID,26,VALID,0,
2011-06-29, 03:56:04,VALID,1002.55,VALID,0,INVALID,163.601,VALID,0,VALID,25.1423,VALID,22,VALID,0,